"Sample Date","Sample Time","Sensor Name","Sample Value","Units","Flow Rate","Sample Interval","Sample Volume","Laser Status","Number Channels","Micron Size 0","Counts/Channel 0","Micron Size 1","Counts/Channel 1","Micron Size 2","Counts/Channel 2","Micron Size 3","Counts/Channel 3","Micron Size 4","Counts/Channel 4","Micron Size 5","Counts/Channel 5","Micron Size 6","Counts/Channel 6","Micron Size 7","Counts/Channel 7","Micron Size 8","Counts/Channel 8","Micron Size 9","Counts/Channel 9","Micron Size 10","Counts/Channel 10","Micron Size 11","Counts/Channel 11","Micron Size 12","Counts/Channel 12","Micron Size 13","Counts/Channel 13","Micron Size 14","Counts/Channel 14","Micron Size 15","Counts/Channel 15","Micron Size 16","Counts/Channel 16","Micron Size 17","Counts/Channel 17","Micron Size 18","Counts/Channel 18","Micron Size 19","Counts/Channel 19","Micron Size 20","Counts/Channel 20","Micron Size 21","Counts/Channel 21","Micron Size 22","Counts/Channel 22","Micron Size 23","Counts/Channel 23","Micron Size 24","Counts/Channel 24","Micron Size 25","Counts/Channel 25","Micron Size 26","Counts/Channel 26","Micron Size 27","Counts/Channel 27","Micron Size 28","Counts/Channel 28","Micron Size 29","Counts/Channel 29","Micron Size 30","Counts/Channel 30","Micron Size 31","Counts/Channel 31"
"07/03/06","02:00:02","AMMA06",78079.000,"cc",28304.223,6.00,2830.422,1,6,0.100,44216.000,0.200,26047.000,0.300,5119.000,0.500,1639.000,1.000,1058.000,5.000,0
"07/03/06","02:00:08","AMMA06",78155.000,"cc",28374.375,6.00,2837.438,1,6,0.100,44281.000,0.200,26120.000,0.300,5128.000,0.500,1630.000,1.000,996.000,5.000,0
"07/03/06","02:00:14","AMMA06",78077.000,"cc",28335.752,6.00,2833.575,1,6,0.100,44049.000,0.200,26253.000,0.300,5138.000,0.500,1591.000,1.000,1046.000,5.000,0
"07/03/06","02:00:20","AMMA06",77494.000,"cc",28327.225,6.00,2832.723,1,6,0.100,43657.000,0.200,25956.000,0.300,5203.000,0.500,1600.000,1.000,1078.000,5.000,0
"07/03/06","02:00:26","AMMA06",77525.000,"cc",28295.787,6.00,2829.579,1,6,0.100,43891.000,0.200,25830.000,0.300,5157.000,0.500,1562.000,1.000,1084.000,5.000,1.000
"07/03/06","02:00:32","AMMA06",77878.000,"cc",28325.283,6.00,2832.529,1,6,0.100,44246.000,0.200,25726.000,0.300,5256.000,0.500,1584.000,1.000,1066.000,5.000,0
"07/03/06","02:00:38","AMMA06",77894.000,"cc",28334.908,6.00,2833.491,1,6,0.100,44102.000,0.200,26036.000,0.300,5185.000,0.500,1563.000,1.000,1008.000,5.000,0
"07/03/06","02:00:44","AMMA06",77280.000,"cc",28275.469,6.00,2827.547,1,6,0.100,43628.000,0.200,25836.000,0.300,5182.000,0.500,1589.000,1.000,1045.000,5.000,0
"07/03/06","02:00:50","AMMA06",77989.000,"cc",28328.211,6.00,2832.821,1,6,0.100,43892.000,0.200,26271.000,0.300,5246.000,0.500,1581.000,1.000,999.000,5.000,0
"07/03/06","02:00:56","AMMA06",78014.000,"cc",28342.514,6.00,2834.252,1,6,0.100,43789.000,0.200,26330.000,0.300,5302.000,0.500,1564.000,1.000,1029.000,5.000,0
"07/03/06","02:01:02","AMMA06",77379.000,"cc",28306.744,6.00,2830.675,1,6,0.100,43491.000,0.200,26089.000,0.300,5105.000,0.500,1623.000,1.000,1071.000,5.000,0
"07/03/06","02:01:08","AMMA06",77868.000,"cc",28332.676,6.00,2833.268,1,6,0.100,43789.000,0.200,26172.000,0.300,5318.000,0.500,1570.000,1.000,1019.000,5.000,0
"07/03/06","02:01:14","AMMA06",77865.000,"cc",28346.434,6.00,2834.644,1,6,0.100,43569.000,0.200,26425.000,0.300,5200.000,0.500,1593.000,1.000,1078.000,5.000,0
"07/03/06","02:01:20","AMMA06",78044.000,"cc",28292.270,6.00,2829.227,1,6,0.100,43918.000,0.200,26068.000,0.300,5322.000,0.500,1602.000,1.000,1133.000,5.000,1.000
"07/03/06","02:01:26","AMMA06",78097.000,"cc",28297.207,6.00,2829.721,1,6,0.100,44011.000,0.200,26164.000,0.300,5272.000,0.500,1607.000,1.000,1043.000,5.000,0
"07/03/06","02:01:32","AMMA06",77930.000,"cc",28315.652,6.00,2831.565,1,6,0.100,43849.000,0.200,26029.000,0.300,5389.000,0.500,1612.000,1.000,1050.000,5.000,1.000
"07/03/06","02:01:38","AMMA06",77690.000,"cc",28318.307,6.00,2831.831,1,6,0.100,43535.000,0.200,26174.000,0.300,5272.000,0.500,1665.000,1.000,1044.000,5.000,0
"07/03/06","02:01:45","AMMA06",77842.000,"cc",28317.693,6.00,2831.770,1,6,0.100,43899.000,0.200,26182.000,0.300,5219.000,0.500,1553.000,1.000,989.000,5.000,0
"07/03/06","02:01:51","AMMA06",78275.000,"cc",28327.008,6.00,2832.701,1,6,0.100,44081.000,0.200,26344.000,0.300,5253.000,0.500,1563.000,1.000,1032.000,5.000,2.000
"07/03/06","02:01:57","AMMA06",78004.000,"cc",28287.760,6.00,2828.776,1,6,0.100,43816.000,0.200,26261.000,0.300,5369.000,0.500,1562.000,1.000,996.000,5.000,0
"07/03/06","02:02:03","AMMA06",78031.000,"cc",28335.885,6.00,2833.589,1,6,0.100,43832.000,0.200,26173.000,0.300,5383.000,0.500,1606.000,1.000,1037.000,5.000,0
"07/03/06","02:02:09","AMMA06",77758.000,"cc",28321.590,6.00,2832.159,1,6,0.100,43714.000,0.200,26117.000,0.300,5400.000,0.500,1543.000,1.000,984.000,5.000,0
"07/03/06","02:02:15","AMMA06",78309.000,"cc",28294.066,6.00,2829.407,1,6,0.100,43925.000,0.200,26332.000,0.300,5390.000,0.500,1546.000,1.000,1116.000,5.000,0
"07/03/06","02:02:21","AMMA06",78311.000,"cc",28361.566,6.00,2836.157,1,6,0.100,43983.000,0.200,26431.000,0.300,5299.000,0.500,1568.000,1.000,1030.000,5.000,0
"07/03/06","02:02:27","AMMA06",77865.000,"cc",28329.199,6.00,2832.920,1,6,0.100,43587.000,0.200,26352.000,0.300,5332.000,0.500,1581.000,1.000,1012.000,5.000,1.000
"07/03/06","02:02:33","AMMA06",78435.000,"cc",28317.334,6.00,2831.734,1,6,0.100,44299.000,0.200,25972.000,0.300,5427.000,0.500,1658.000,1.000,1076.000,5.000,3.000
"07/03/06","02:02:39","AMMA06",78253.000,"cc",28325.029,6.00,2832.503,1,6,0.100,43730.000,0.200,26370.000,0.300,5479.000,0.500,1626.000,1.000,1048.000,5.000,0
"07/03/06","02:02:45","AMMA06",77942.000,"cc",28294.756,6.00,2829.476,1,6,0.100,43780.000,0.200,26229.000,0.300,5349.000,0.500,1515.000,1.000,1069.000,5.000,0
"07/03/06","02:02:51","AMMA06",78389.000,"cc",28325.648,6.00,2832.565,1,6,0.100,43845.000,0.200,26637.000,0.300,5459.000,0.500,1482.000,1.000,965.000,5.000,1.000
"07/03/06","02:02:57","AMMA06",77619.000,"cc",28326.033,6.00,2832.604,1,6,0.100,43372.000,0.200,26408.000,0.300,5295.000,0.500,1526.000,1.000,1018.000,5.000,0
"07/03/06","02:03:03","AMMA06",78095.000,"cc",28341.182,6.00,2834.118,1,6,0.100,44021.000,0.200,26252.000,0.300,5222.000,0.500,1599.000,1.000,1001.000,5.000,0
"07/03/06","02:03:09","AMMA06",78231.000,"cc",28290.508,6.00,2829.051,1,6,0.100,43794.000,0.200,26499.000,0.300,5371.000,0.500,1545.000,1.000,1022.000,5.000,0
"07/03/06","02:03:15","AMMA06",77962.000,"cc",28334.135,6.00,2833.414,1,6,0.100,43809.000,0.200,26241.000,0.300,5361.000,0.500,1550.000,1.000,1001.000,5.000,0
"07/03/06","02:03:21","AMMA06",77956.000,"cc",28333.315,6.00,2833.332,1,6,0.100,43813.000,0.200,26265.000,0.300,5379.000,0.500,1489.000,1.000,1010.000,5.000,0
"07/03/06","02:03:27","AMMA06",77494.000,"cc",28306.791,6.00,2830.679,1,6,0.100,43361.000,0.200,26205.000,0.300,5252.000,0.500,1627.000,1.000,1049.000,5.000,0
"07/03/06","02:03:33","AMMA06",77772.000,"cc",28315.184,6.00,2831.519,1,6,0.100,43665.000,0.200,26466.000,0.300,5099.000,0.500,1533.000,1.000,1009.000,5.000,0
"07/03/06","02:03:39","AMMA06",77399.000,"cc",28339.229,6.00,2833.923,1,6,0.100,43517.000,0.200,26018.000,0.300,5225.000,0.500,1601.000,1.000,1038.000,5.000,0
"07/03/06","02:03:45","AMMA06",78126.000,"cc",28302.252,6.00,2830.225,1,6,0.100,44013.000,0.200,26134.000,0.300,5315.000,0.500,1618.000,1.000,1046.000,5.000,0
"07/03/06","02:03:51","AMMA06",77911.000,"cc",28325.600,6.00,2832.560,1,6,0.100,43718.000,0.200,26284.000,0.300,5271.000,0.500,1590.000,1.000,1048.000,5.000,0
"07/03/06","02:03:57","AMMA06",78107.000,"cc",28329.938,6.00,2832.994,1,6,0.100,43905.000,0.200,26366.000,0.300,5241.000,0.500,1549.000,1.000,1046.000,5.000,0
"07/03/06","02:04:03","AMMA06",78325.000,"cc",28330.775,6.00,2833.078,1,6,0.100,44120.000,0.200,26101.000,0.300,5383.000,0.500,1642.000,1.000,1079.000,5.000,0
"07/03/06","02:04:09","AMMA06",77145.000,"cc",28255.670,6.00,2825.567,1,6,0.100,43361.000,0.200,26056.000,0.300,5221.000,0.500,1520.000,1.000,986.000,5.000,1.000
"07/03/06","02:04:15","AMMA06",77513.000,"cc",28312.283,6.00,2831.229,1,6,0.100,43558.000,0.200,26035.000,0.300,5262.000,0.500,1565.000,1.000,1093.000,5.000,0
"07/03/06","02:04:21","AMMA06",77767.000,"cc",28330.229,6.00,2833.023,1,6,0.100,43751.000,0.200,26201.000,0.300,5254.000,0.500,1550.000,1.000,1011.000,5.000,0
"07/03/06","02:04:27","AMMA06",77464.000,"cc",28343.190,6.00,2834.319,1,6,0.100,43596.000,0.200,26034.000,0.300,5281.000,0.500,1538.000,1.000,1015.000,5.000,0
"07/03/06","02:04:33","AMMA06",77747.000,"cc",28325.566,6.00,2832.557,1,6,0.100,43961.000,0.200,25908.000,0.300,5207.000,0.500,1636.000,1.000,1035.000,5.000,0
"07/03/06","02:04:39","AMMA06",77534.000,"cc",28324.047,6.00,2832.405,1,6,0.100,44089.000,0.200,25786.000,0.300,5083.000,0.500,1590.000,1.000,985.000,5.000,1.000
"07/03/06","02:04:45","AMMA06",77509.000,"cc",28301.836,6.00,2830.184,1,6,0.100,43659.000,0.200,26066.000,0.300,5107.000,0.500,1636.000,1.000,1041.000,5.000,0
"07/03/06","02:04:51","AMMA06",77804.000,"cc",28284.051,6.00,2828.405,1,6,0.100,43952.000,0.200,26016.000,0.300,5187.000,0.500,1628.000,1.000,1021.000,5.000,0
"07/03/06","02:04:57","AMMA06",77756.000,"cc",28315.115,6.00,2831.512,1,6,0.100,43816.000,0.200,26204.000,0.300,5165.000,0.500,1551.000,1.000,1020.000,5.000,0
"07/03/06","02:05:03","AMMA06",77792.000,"cc",28298.828,6.00,2829.883,1,6,0.100,44024.000,0.200,25946.000,0.300,5214.000,0.500,1601.000,1.000,1007.000,5.000,0
"07/03/06","02:05:09","AMMA06",77878.000,"cc",28296.660,6.00,2829.666,1,6,0.100,43741.000,0.200,26299.000,0.300,5209.000,0.500,1573.000,1.000,1056.000,5.000,0
"07/03/06","02:05:15","AMMA06",77861.000,"cc",28364.096,6.00,2836.410,1,6,0.100,43980.000,0.200,26079.000,0.300,5213.000,0.500,1584.000,1.000,1004.000,5.000,1.000
"07/03/06","02:05:21","AMMA06",78000.000,"cc",28356.148,6.00,2835.615,1,6,0.100,43983.000,0.200,26123.000,0.300,5213.000,0.500,1604.000,1.000,1077.000,5.000,0
"07/03/06","02:05:27","AMMA06",77824.000,"cc",28277.359,6.00,2827.736,1,6,0.100,43741.000,0.200,26035.000,0.300,5316.000,0.500,1659.000,1.000,1073.000,5.000,0
"07/03/06","02:05:33","AMMA06",77911.000,"cc",28353.588,6.00,2835.359,1,6,0.100,43620.000,0.200,26470.000,0.300,5301.000,0.500,1595.000,1.000,925.000,5.000,0
"07/03/06","02:05:39","AMMA06",77690.000,"cc",28302.047,6.00,2830.205,1,6,0.100,43571.000,0.200,26334.000,0.300,5286.000,0.500,1506.000,1.000,993.000,5.000,0
"07/03/06","02:05:45","AMMA06",78070.000,"cc",28325.092,6.00,2832.509,1,6,0.100,43658.000,0.200,26446.000,0.300,5463.000,0.500,1496.000,1.000,1006.000,5.000,1.000
"07/03/06","02:05:51","AMMA06",77475.000,"cc",28350.336,6.00,2835.034,1,6,0.100,43585.000,0.200,26109.000,0.300,5235.000,0.500,1535.000,1.000,1011.000,5.000,0
"07/03/06","02:05:57","AMMA06",78073.000,"cc",28332.195,6.00,2833.220,1,6,0.100,43397.000,0.200,26641.000,0.300,5383.000,0.500,1582.000,1.000,1070.000,5.000,0
"07/03/06","02:06:03","AMMA06",77246.000,"cc",28350.566,6.00,2835.057,1,6,0.100,42821.000,0.200,26318.000,0.300,5447.000,0.500,1608.000,1.000,1051.000,5.000,1.000
"07/03/06","02:06:09","AMMA06",77871.000,"cc",28283.936,6.00,2828.394,1,6,0.100,43498.000,0.200,26395.000,0.300,5378.000,0.500,1580.000,1.000,1020.000,5.000,0
"07/03/06","02:06:15","AMMA06",77352.000,"cc",28323.080,6.00,2832.308,1,6,0.100,42823.000,0.200,26524.000,0.300,5495.000,0.500,1494.000,1.000,1015.000,5.000,1.000
"07/03/06","02:06:21","AMMA06",77936.000,"cc",28254.385,6.00,2825.439,1,6,0.100,43388.000,0.200,26514.000,0.300,5534.000,0.500,1487.000,1.000,1012.000,5.000,1.000
"07/03/06","02:06:27","AMMA06",78285.000,"cc",28287.918,6.00,2828.792,1,6,0.100,43685.000,0.200,26600.000,0.300,5410.000,0.500,1593.000,1.000,997.000,5.000,0
"07/03/06","02:06:33","AMMA06",78390.000,"cc",28320.076,6.00,2832.008,1,6,0.100,43797.000,0.200,26599.000,0.300,5378.000,0.500,1594.000,1.000,1022.000,5.000,0
"07/03/06","02:06:39","AMMA06",77928.000,"cc",28350.092,6.00,2835.009,1,6,0.100,43682.000,0.200,26298.000,0.300,5387.000,0.500,1538.000,1.000,1023.000,5.000,0
"07/03/06","02:06:45","AMMA06",78464.000,"cc",28298.652,6.00,2829.866,1,6,0.100,43928.000,0.200,26563.000,0.300,5342.000,0.500,1574.000,1.000,1057.000,5.000,0
"07/03/06","02:06:51","AMMA06",77859.000,"cc",28341.523,6.00,2834.153,1,6,0.100,43603.000,0.200,26307.000,0.300,5260.000,0.500,1581.000,1.000,1108.000,5.000,0
"07/03/06","02:06:57","AMMA06",78125.000,"cc",28307.471,6.00,2830.747,1,6,0.100,43537.000,0.200,26514.000,0.300,5533.000,0.500,1557.000,1.000,983.000,5.000,1.000
"07/03/06","02:07:03","AMMA06",78422.000,"cc",28332.418,6.00,2833.242,1,6,0.100,43964.000,0.200,26507.000,0.300,5249.000,0.500,1626.000,1.000,1076.000,5.000,0
"07/03/06","02:07:09","AMMA06",77831.000,"cc",28270.850,6.00,2827.085,1,6,0.100,43512.000,0.200,26265.000,0.300,5389.000,0.500,1599.000,1.000,1066.000,5.000,0
"07/03/06","02:07:15","AMMA06",78082.000,"cc",28328.961,6.00,2832.896,1,6,0.100,43882.000,0.200,26193.000,0.300,5387.000,0.500,1555.000,1.000,1065.000,5.000,0
"07/03/06","02:07:21","AMMA06",78013.000,"cc",28324.217,6.00,2832.422,1,6,0.100,43803.000,0.200,26257.000,0.300,5328.000,0.500,1591.000,1.000,1034.000,5.000,0
"07/03/06","02:07:27","AMMA06",78073.000,"cc",28313.111,6.00,2831.311,1,6,0.100,43930.000,0.200,26203.000,0.300,5347.000,0.500,1585.000,1.000,1008.000,5.000,0
"07/03/06","02:07:33","AMMA06",77765.000,"cc",28294.063,6.00,2829.407,1,6,0.100,43662.000,0.200,26233.000,0.300,5283.000,0.500,1552.000,1.000,1035.000,5.000,0
"07/03/06","02:07:39","AMMA06",78061.000,"cc",28282.955,6.00,2828.296,1,6,0.100,43926.000,0.200,26299.000,0.300,5196.000,0.500,1564.000,1.000,1075.000,5.000,1.000
"07/03/06","02:07:45","AMMA06",77960.000,"cc",28366.953,6.00,2836.696,1,6,0.100,43942.000,0.200,26041.000,0.300,5318.000,0.500,1646.000,1.000,1013.000,5.000,0
"07/03/06","02:07:51","AMMA06",78144.000,"cc",28302.957,6.00,2830.296,1,6,0.100,43775.000,0.200,26465.000,0.300,5334.000,0.500,1599.000,1.000,971.000,5.000,0
"07/03/06","02:07:57","AMMA06",77865.000,"cc",28318.920,6.00,2831.892,1,6,0.100,43713.000,0.200,26193.000,0.300,5266.000,0.500,1622.000,1.000,1070.000,5.000,1.000
"07/03/06","02:08:03","AMMA06",78190.000,"cc",28331.541,6.00,2833.154,1,6,0.100,44106.000,0.200,26337.000,0.300,5106.000,0.500,1593.000,1.000,1046.000,5.000,2.000
"07/03/06","02:08:09","AMMA06",77890.000,"cc",28317.408,6.00,2831.741,1,6,0.100,43909.000,0.200,26021.000,0.300,5262.000,0.500,1613.000,1.000,1084.000,5.000,1.000
"07/03/06","02:08:15","AMMA06",77885.000,"cc",28297.148,6.00,2829.715,1,6,0.100,43750.000,0.200,26191.000,0.300,5317.000,0.500,1606.000,1.000,1019.000,5.000,2.000
"07/03/06","02:08:21","AMMA06",78129.000,"cc",28341.744,6.00,2834.175,1,6,0.100,43983.000,0.200,26249.000,0.300,5232.000,0.500,1620.000,1.000,1045.000,5.000,0
"07/03/06","02:08:27","AMMA06",77714.000,"cc",28340.856,6.00,2834.086,1,6,0.100,43668.000,0.200,26148.000,0.300,5193.000,0.500,1669.000,1.000,1036.000,5.000,0
"07/03/06","02:08:33","AMMA06",78462.000,"cc",28328.848,6.00,2832.885,1,6,0.100,44402.000,0.200,26207.000,0.300,5273.000,0.500,1566.000,1.000,1014.000,5.000,0
"07/03/06","02:08:39","AMMA06",78001.000,"cc",28306.342,6.00,2830.634,1,6,0.100,43739.000,0.200,26464.000,0.300,5231.000,0.500,1563.000,1.000,1004.000,5.000,0
"07/03/06","02:08:45","AMMA06",78080.000,"cc",28309.721,6.00,2830.972,1,6,0.100,43702.000,0.200,26617.000,0.300,5181.000,0.500,1565.000,1.000,1015.000,5.000,0
"07/03/06","02:08:51","AMMA06",78041.000,"cc",28294.205,6.00,2829.421,1,6,0.100,43988.000,0.200,26187.000,0.300,5292.000,0.500,1565.000,1.000,1009.000,5.000,0
"07/03/06","02:08:57","AMMA06",76902.000,"cc",28341.297,6.00,2834.130,1,6,0.100,43362.000,0.200,25874.000,0.300,5160.000,0.500,1505.000,1.000,1000.000,5.000,1.000
"07/03/06","02:09:03","AMMA06",78007.000,"cc",28303.080,6.00,2830.308,1,6,0.100,44200.000,0.200,25962.000,0.300,5196.000,0.500,1653.000,1.000,996.000,5.000,0
"07/03/06","02:09:09","AMMA06",78014.000,"cc",28315.326,6.00,2831.533,1,6,0.100,43969.000,0.200,26222.000,0.300,5156.000,0.500,1586.000,1.000,1080.000,5.000,1.000
"07/03/06","02:09:15","AMMA06",77516.000,"cc",28327.299,6.00,2832.730,1,6,0.100,43443.000,0.200,26212.000,0.300,5200.000,0.500,1625.000,1.000,1035.000,5.000,1.000
"07/03/06","02:09:21","AMMA06",77525.000,"cc",28287.168,6.00,2828.717,1,6,0.100,43656.000,0.200,26016.000,0.300,5257.000,0.500,1586.000,1.000,1010.000,5.000,0
"07/03/06","02:09:27","AMMA06",77370.000,"cc",28332.826,6.00,2833.283,1,6,0.100,43361.000,0.200,26135.000,0.300,5218.000,0.500,1655.000,1.000,1001.000,5.000,0
"07/03/06","02:09:33","AMMA06",78127.000,"cc",28317.627,6.00,2831.763,1,6,0.100,43677.000,0.200,26518.000,0.300,5315.000,0.500,1590.000,1.000,1027.000,5.000,0
"07/03/06","02:09:39","AMMA06",78143.000,"cc",28321.854,6.00,2832.186,1,6,0.100,43903.000,0.200,26416.000,0.300,5179.000,0.500,1642.000,1.000,1003.000,5.000,0
"07/03/06","02:09:45","AMMA06",77741.000,"cc",28333.650,6.00,2833.365,1,6,0.100,43690.000,0.200,26152.000,0.300,5396.000,0.500,1542.000,1.000,961.000,5.000,0
"07/03/06","02:09:51","AMMA06",77590.000,"cc",28308.516,6.00,2830.852,1,6,0.100,43583.000,0.200,26080.000,0.300,5322.000,0.500,1570.000,1.000,1035.000,5.000,0
"07/03/06","02:09:57","AMMA06",78123.000,"cc",28315.287,6.00,2831.529,1,6,0.100,44022.000,0.200,26213.000,0.300,5325.000,0.500,1563.000,1.000,1000.000,5.000,0
"07/03/06","02:10:03","AMMA06",77622.000,"cc",28305.082,6.00,2830.508,1,6,0.100,43424.000,0.200,26289.000,0.300,5307.000,0.500,1627.000,1.000,975.000,5.000,0
"07/03/06","02:10:09","AMMA06",77461.000,"cc",28269.596,6.00,2826.960,1,6,0.100,43520.000,0.200,26028.000,0.300,5331.000,0.500,1559.000,1.000,1022.000,5.000,1.000
"07/03/06","02:10:15","AMMA06",77859.000,"cc",28364.736,6.00,2836.474,1,6,0.100,43471.000,0.200,26310.000,0.300,5430.000,0.500,1576.000,1.000,1072.000,5.000,0
"07/03/06","02:10:21","AMMA06",77869.000,"cc",28306.459,6.00,2830.646,1,6,0.100,43594.000,0.200,26234.000,0.300,5434.000,0.500,1597.000,1.000,1009.000,5.000,1.000
"07/03/06","02:10:27","AMMA06",78607.000,"cc",28304.170,6.00,2830.417,1,6,0.100,43475.000,0.200,27072.000,0.300,5458.000,0.500,1558.000,1.000,1044.000,5.000,0
"07/03/06","02:10:33","AMMA06",78668.000,"cc",28280.010,6.00,2828.001,1,6,0.100,44095.000,0.200,26392.000,0.300,5461.000,0.500,1596.000,1.000,1124.000,5.000,0
"07/03/06","02:10:39","AMMA06",78025.000,"cc",28337.225,6.00,2833.723,1,6,0.100,43474.000,0.200,26382.000,0.300,5501.000,0.500,1536.000,1.000,1132.000,5.000,0
"07/03/06","02:10:45","AMMA06",78518.000,"cc",28264.535,6.00,2826.454,1,6,0.100,43702.000,0.200,26741.000,0.300,5427.000,0.500,1560.000,1.000,1088.000,5.000,0
"07/03/06","02:10:51","AMMA06",78779.000,"cc",28299.516,6.00,2829.952,1,6,0.100,44045.000,0.200,26704.000,0.300,5345.000,0.500,1598.000,1.000,1087.000,5.000,0
"07/03/06","02:10:57","AMMA06",78288.000,"cc",28365.356,6.00,2836.536,1,6,0.100,43636.000,0.200,26565.000,0.300,5480.000,0.500,1513.000,1.000,1094.000,5.000,0
"07/03/06","02:11:03","AMMA06",78067.000,"cc",28315.604,6.00,2831.561,1,6,0.100,43829.000,0.200,26168.000,0.300,5518.000,0.500,1486.000,1.000,1065.000,5.000,1.000
"07/03/06","02:11:09","AMMA06",78009.000,"cc",28372.318,6.00,2837.232,1,6,0.100,43773.000,0.200,26143.000,0.300,5534.000,0.500,1521.000,1.000,1038.000,5.000,0
"07/03/06","02:11:15","AMMA06",78602.000,"cc",28373.414,6.00,2837.342,1,6,0.100,44033.000,0.200,26475.000,0.300,5430.000,0.500,1587.000,1.000,1077.000,5.000,0
"07/03/06","02:11:21","AMMA06",77821.000,"cc",28267.566,6.00,2826.757,1,6,0.100,43509.000,0.200,26387.000,0.300,5319.000,0.500,1560.000,1.000,1045.000,5.000,1.000
"07/03/06","02:11:27","AMMA06",77921.000,"cc",28299.229,6.00,2829.923,1,6,0.100,43231.000,0.200,26709.000,0.300,5394.000,0.500,1546.000,1.000,1040.000,5.000,1.000
"07/03/06","02:11:33","AMMA06",78026.000,"cc",28303.092,6.00,2830.309,1,6,0.100,43432.000,0.200,26576.000,0.300,5425.000,0.500,1533.000,1.000,1060.000,5.000,0
"07/03/06","02:11:39","AMMA06",78378.000,"cc",28331.150,6.00,2833.115,1,6,0.100,43726.000,0.200,26464.000,0.300,5414.000,0.500,1653.000,1.000,1120.000,5.000,1.000
"07/03/06","02:11:45","AMMA06",77840.000,"cc",28266.201,6.00,2826.620,1,6,0.100,43390.000,0.200,26355.000,0.300,5438.000,0.500,1587.000,1.000,1069.000,5.000,1.000
"07/03/06","02:11:51","AMMA06",78164.000,"cc",28254.324,6.00,2825.433,1,6,0.100,43762.000,0.200,26450.000,0.300,5343.000,0.500,1555.000,1.000,1053.000,5.000,1.000
"07/03/06","02:11:57","AMMA06",78499.000,"cc",28366.951,6.00,2836.695,1,6,0.100,43763.000,0.200,26649.000,0.300,5371.000,0.500,1640.000,1.000,1076.000,5.000,0
"07/03/06","02:12:03","AMMA06",78479.000,"cc",28321.854,6.00,2832.186,1,6,0.100,44044.000,0.200,26427.000,0.300,5329.000,0.500,1595.000,1.000,1084.000,5.000,0
"07/03/06","02:12:09","AMMA06",78322.000,"cc",28342.232,6.00,2834.223,1,6,0.100,43819.000,0.200,26463.000,0.300,5390.000,0.500,1551.000,1.000,1099.000,5.000,0
"07/03/06","02:12:15","AMMA06",82066.000,"cc",28295.465,6.00,2829.547,1,6,0.100,47041.000,0.200,26993.000,0.300,5377.000,0.500,1639.000,1.000,1016.000,5.000,0
"07/03/06","02:12:21","AMMA06",82451.000,"cc",28303.201,6.00,2830.320,1,6,0.100,47607.000,0.200,26705.000,0.300,5409.000,0.500,1642.000,1.000,1087.000,5.000,1.000
"07/03/06","02:12:27","AMMA06",80706.000,"cc",28288.199,6.00,2828.820,1,6,0.100,45674.000,0.200,26939.000,0.300,5352.000,0.500,1663.000,1.000,1078.000,5.000,0
"07/03/06","02:12:33","AMMA06",80173.000,"cc",28341.645,6.00,2834.165,1,6,0.100,45723.000,0.200,26474.000,0.300,5268.000,0.500,1663.000,1.000,1045.000,5.000,0
"07/03/06","02:12:39","AMMA06",80665.000,"cc",28285.029,6.00,2828.503,1,6,0.100,45903.000,0.200,26768.000,0.300,5319.000,0.500,1591.000,1.000,1083.000,5.000,1.000
"07/03/06","02:12:45","AMMA06",81960.000,"cc",28331.143,6.00,2833.115,1,6,0.100,46937.000,0.200,26931.000,0.300,5335.000,0.500,1660.000,1.000,1097.000,5.000,0
"07/03/06","02:12:51","AMMA06",81239.000,"cc",28342.461,6.00,2834.246,1,6,0.100,46470.000,0.200,26778.000,0.300,5299.000,0.500,1645.000,1.000,1047.000,5.000,0
"07/03/06","02:12:57","AMMA06",83794.000,"cc",28276.045,6.00,2827.605,1,6,0.100,48894.000,0.200,27039.000,0.300,5264.000,0.500,1594.000,1.000,1003.000,5.000,0
"07/03/06","02:13:03","AMMA06",89488.000,"cc",28324.238,6.00,2832.424,1,6,0.100,53251.000,0.200,28141.000,0.300,5427.000,0.500,1656.000,1.000,1013.000,5.000,0
"07/03/06","02:13:09","AMMA06",101131.000,"cc",28315.231,6.00,2831.523,1,6,0.100,62729.000,0.200,30037.000,0.300,5693.000,0.500,1637.000,1.000,1035.000,5.000,0
"07/03/06","02:13:15","AMMA06",106044.000,"cc",28302.500,6.00,2830.250,1,6,0.100,66459.000,0.200,31206.000,0.300,5759.000,0.500,1546.000,1.000,1073.000,5.000,1.000
"07/03/06","02:13:21","AMMA06",107056.000,"cc",28371.424,6.00,2837.143,1,6,0.100,67456.000,0.200,31232.000,0.300,5731.000,0.500,1593.000,1.000,1044.000,5.000,0
"07/03/06","02:13:27","AMMA06",94614.000,"cc",28313.324,6.00,2831.333,1,6,0.100,57637.000,0.200,28943.000,0.300,5439.000,0.500,1590.000,1.000,1005.000,5.000,0
"07/03/06","02:13:33","AMMA06",81842.000,"cc",28307.035,6.00,2830.704,1,6,0.100,47038.000,0.200,26970.000,0.300,5288.000,0.500,1563.000,1.000,983.000,5.000,0
"07/03/06","02:13:39","AMMA06",81168.000,"cc",28311.561,6.00,2831.156,1,6,0.100,46718.000,0.200,26628.000,0.300,5210.000,0.500,1608.000,1.000,1004.000,5.000,0
"07/03/06","02:13:45","AMMA06",79360.000,"cc",28304.066,6.00,2830.407,1,6,0.100,45116.000,0.200,26316.000,0.300,5225.000,0.500,1674.000,1.000,1029.000,5.000,0
"07/03/06","02:13:51","AMMA06",78320.000,"cc",28311.883,6.00,2831.189,1,6,0.100,44219.000,0.200,26355.000,0.300,5119.000,0.500,1592.000,1.000,1034.000,5.000,1.000
"07/03/06","02:13:57","AMMA06",78609.000,"cc",28310.848,6.00,2831.085,1,6,0.100,44250.000,0.200,26428.000,0.300,5316.000,0.500,1586.000,1.000,1028.000,5.000,1.000
"07/03/06","02:14:03","AMMA06",78082.000,"cc",28371.518,6.00,2837.152,1,6,0.100,44077.000,0.200,26053.000,0.300,5245.000,0.500,1676.000,1.000,1031.000,5.000,0